Location: B�rgermoos
(47.6500°N, 9.0667°E)
Time: 17:45:57
(UTC+00:00)

Vanguard 1 - Pass Details

Date: 07 August 2021
Orbit: 652 x 3831 km, 34.3° (Epoch: 17 September)

Event Time Altitude Azimuth Distance (km) Brightness Sun altitude
Rises 10:37:13 0° 244° (WSW) 2,994 12.6 56.8°
Reaches altitude 10° 10:39:50 10° 226° (SW) 2,191 12.2 57.0°
Maximum altitude 10:43:28 21° 178° (S) 1,821 12.4 57.2°
Drops below altitude 10° 10:48:09 10° 132° (SE) 2,921 13.1 57.5°
Sets 10:52:20 0° 118° (ESE) 4,378 13.7 57.7°
